2019-095C (45041 NORAD) Tracking and Keplerian Element Data

This shows tracking and keplerian element data for the satellite.

Feedback or suggestion? Click here.




ElementValue
Catalog45041
Name2019-095C
Epoch Orbit25
Epoch Day22.62642146
Epoch Year2020
RAAN274.7878
Inclination0.4212
Eccentricity0.0108178
Argument of Perigee51.2673
Mean Anonmoly33.2224
Mean Motion1.02975256
Decay Rate-4.2E-07
L11 45041U 19095C 20022.62642146 -.00000042 00000-0 00000+0 0 9991
L22 45041 0.4212 274.7878 0108178 51.2673 33.2224 1.02975256 257

Live tracking and technical data element details for 2019-095C (NORAD 45041). 2019-095C can be tracked NOW for your location showing map with azimuth and elevation plus other details from your city location.

Track the satellite on the map from your city or location and see movement details for azimuth, elevation, latitude, longitude, range, height, and movement on the map or in text.







IsCatalogInMostPopularTable: catalog: 45041, numindb: 31
Update: records affected: 1



GetName: 45041 2019-095C

Hit Count: updated at: Wed, 08 Jul 2020 05:20:42 GMT